Location: Unspecified
(51.5147°N, 7.4673°E)
Time: 03:33:54
(UTC+01:00)

Vanguard 1 Rocket - Pass Details

Date: 20 February 2026
Orbit: 653 x 4214 km, 34.3° (Epoch: 12 March)

Event Time Altitude Azimuth Distance (km) Brightness Sun altitude
Rises 12:56:22 0° 212° (SSW) 4,050 11.6 27.6°
Reaches altitude 10° 12:59:17 10° 198° (SSW) 3,452 11.9 27.6°
Maximum altitude 13:06:20 25° 147° (SSE) 3,303 11.3 27.5°
Drops below altitude 10° 13:17:27 10° 101° (E) 5,653 11.5 27.3°
Sets 13:24:07 0° 92° (E) 7,310 11.9 27.1°
